Wind_Speed
32 32 32 33 33 33 32 31 31 30 31 31 30 30 30 31 31 31 32 33 33 34 34 35 35 35 35 36 37 38 39 38 37 37 36 36 35 36 36 37 36 35 34 33 31 30 30 30 30 30 30 30 29 27 26 25 24 23 22 21 20 20 20 20 20 19 19 18 18
33 33 33 34 34 34 33 32 31 31 32 32 32 32 32 32 32 32 33 34 34 35 35 35 35 35 35 36 38 39 39 39 38 38 37 37 37 37 38 38 37 36 35 33 32 31 31 31 31 31 31 30 29 27 26 25 24 23 22 21 20 20 20 20 20 20 20 19 18
34 34 34 34 34 34 34 32 32 32 33 33 33 33 32 33 33 33 33 34 35 35 35 35 35 36 37 38 38 39 40 40 40 39 39 39 39 39 39 39 38 37 35 34 33 33 33 33 32 32 31 31 29 28 27 26 25 23 22 21 21 20 20 21 21 21 20 19 19
35 34 34 35 36 36 35 34 34 34 35 35 34 33 33 33 33 34 34 35 35 36 36 36 36 37 38 39 39 40 40 41 41 41 41 40 40 40 40 40 38 37 36 36 35 35 34 34 33 32 32 31 30 29 28 27 26 24 23 23 22 22 22 22 22 21 20 20 19
36 35 35 35 37 39 38 37 36 36 36 36 34 34 33 34 34 34 34 34 35 37 39 39 38 38 38 39 40 40 40 40 41 41 41 41 41 40 40 40 39 38 37 37 36 36 35 34 33 33 32 31 30 30 29 28 27 26 25 24 24 24 23 23 22 21 20 20 20
37 36 36 36 38 39 39 38 38 38 38 36 35 35 35 34 34 35 35 35 36 38 41 41 40 39 38 39 40 40 40 40 41 41 41 41 41 41 40 40 40 39 37 37 37 37 36 35 34 33 32 31 30 30 29 29 27 27 26 25 25 24 24 23 22 21 21 20 20
37 37 37 36 38 39 39 38 38 39 39 38 37 37 37 37 37 37 38 38 37 38 40 41 41 40 39 39 40 40 40 40 40 41 41 41 41 40 40 40 39 38 37 37 37 37 36 35 34 33 31 29 29 29 29 29 28 28 27 27 26 25 24 23 22 22 21 21 21
38 38 38 37 38 39 39 39 38 38 39 40 40 41 41 40 40 40 39 39 38 37 38 40 41 40 40 40 40 41 41 41 40 40 41 41 40 40 39 38 37 36 37 37 38 37 36 35 34 33 31 29 29 30 30 30 29 29 29 28 27 26 25 24 23 23 22 22 22
38 38 38 38 38 39 40 40 39 38 39 41 42 43 44 43 42 41 40 39 39 38 38 38 40 40 40 40 41 42 42 42 41 40 40 40 40 40 39 38 36 36 37 37 37 37 36 35 34 33 31 30 30 31 32 32 31 31 30 29 28 27 26 25 24 24 23 23 23
38 39 39 38 39 39 40 40 40 40 40 42 43 44 45 44 44 43 42 40 39 38 38 38 39 40 40 40 41 42 42 43 42 41 40 40 40 40 39 39 37 37 37 37 36 36 36 34 34 34 33 30 30 32 34 34 33 32 31 30 29 28 27 26 25 24 24 24 24
40 40 39 39 39 40 40 40 40 40 40 41 43 44 44 44 44 44 43 40 39 38 39 39 39 40 40 41 41 42 43 43 43 42 40 41 41 41 40 39 38 38 37 36 36 36 35 35 35 35 34 32 31 31 33 35 34 33 32 31 30 29 28 27 26 26 25 25 24
41 41 40 40 39 39 39 39 39 39 40 40 41 42 42 43 44 43 42 39 39 40 40 40 40 41 41 41 42 42 43 44 44 43 41 40 40 41 40 39 38 38 37 37 36 36 36 36 35 35 35 35 32 30 32 34 35 35 33 32 31 30 29 28 27 27 26 26 25
42 41 40 40 39 39 39 39 39 39 39 39 40 40 40 41 42 42 41 39 40 40 40 39 40 41 41 41 42 43 43 43 43 42 41 40 40 40 40 38 37 37 37 37 37 37 37 36 36 36 36 36 34 32 31 33 35 36 35 34 32 31 30 29 29 28 27 26 25
42 41 40 39 39 38 38 38 39 39 39 39 39 39 39 39 40 40 40 39 40 40 38 38 38 39 41 41 42 42 42 42 42 41 40 39 39 39 39 38 37 37 37 37 37 37 37 36 36 36 36 37 36 34 32 32 35 37 37 35 34 33 31 30 29 28 27 26 25
42 41 40 39 38 38 37 38 38 38 38 39 39 39 39 38 38 39 39 39 39 39 37 36 36 38 40 41 41 41 41 41 40 40 40 39 38 39 39 38 37 37 37 37 37 38 38 37 37 36 37 37 37 36 35 34 35 36 37 36 34 33 32 31 30 29 27 26 25
41 41 40 39 38 38 38 38 38 38 38 38 39 39 38 38 38 38 38 38 38 36 35 35 35 36 38 39 40 40 39 39 39 40 40 39 38 38 38 38 37 37 37 37 37 37 38 37 37 37 37 37 37 37 36 35 35 35 35 35 34 33 32 32 30 29 27 26 26
40 40 40 39 38 38 38 38 37 37 37 38 38 38 38 38 37 37 38 38 36 35 34 34 34 35 36 37 38 38 38 38 39 39 40 39 39 38 38 37 37 37 37 36 36 36 37 37 36 36 36 37 36 36 36 35 35 35 34 34 33 33 32 32 30 28 26 25 25
38 39 39 39 38 38 38 38 38 38 38 38 38 38 38 37 37 37 37 38 36 35 34 34 34 34 35 36 38 38 37 38 38 39 40 40 39 38 37 37 36 36 36 35 35 36 36 36 36 36 36 36 35 35 35 35 35 35 34 33 33 33 33 31 29 27 25 24 23
38 38 38 38 38 38 38 39 40 40 40 39 38 37 37 37 37 36 36 37 37 37 36 35 35 34 35 36 37 37 37 37 38 38 38 38 37 36 35 34 34 34 34 34 34 35 35 35 35 35 35 35 34 34 33 34 34 34 34 34 33 33 32 30 27 25 23 22 22
40 39 37 36 35 36 38 41 42 41 39 38 38 37 36 36 36 36 36 36 37 37 37 36 35 34 34 34 35 36 36 36 36 36 35 34 33 33 33 32 32 32 32 32 32 33 34 35 35 35 35 34 34 33 33 33 33 34 34 34 33 32 31 28 25 23 22 23 24
41 38 34 31 30 33 38 42 42 40 38 37 37 36 36 35 35 35 35 36 36 36 36 36 35 33 32 33 33 34 33 31 31 32 31 31 30 30 30 30 30 30 30 30 31 32 33 34 35 35 35 34 34 33 33 34 34 34 34 34 33 31 28 25 23 23 23 24 25
39 36 31 28 29 32 37 40 39 38 37 36 36 36 35 35 35 35 35 34 34 35 35 35 34 33 32 31 31 30 29 28 28 29 28 28 28 29 29 29 28 29 29 30 31 32 33 34 34 34 34 34 34 34 35 35 35 35 35 33 32 29 26 24 23 24 24 25 25
38 35 32 29 32 36 39 38 36 36 36 35 35 34 34 34 34 34 33 33 33 34 34 34 33 31 30 29 27 26 26 26 26 26 26 26 26 27 27 28 28 28 29 30 31 32 33 32 32 33 33 33 34 34 35 35 35 35 33 32 29 26 24 23 24 25 24 24 24
38 36 35 35 37 39 39 37 35 35 35 35 34 33 33 33 33 32 32 32 32 33 33 32 30 29 27 25 24 24 24 24 24 24 24 25 25 26 27 27 28 29 30 31 32 33 32 31 31 32 32 32 33 33 33 33 32 31 30 29 27 24 23 24 25 25 24 24 24
37 37 37 37 37 38 37 35 35 35 35 34 33 32 32 32 31 30 30 30 31 30 29 27 27 26 24 22 21 21 22 22 22 23 24 25 26 26 27 28 29 30 31 33 33 33 33 32 33 32 31 31 32 32 32 31 30 29 28 27 25 24 23 23 24 25 25 25 25
34 35 35 33 33 33 33 34 34 34 34 33 32 31 31 31 30 29 28 29 28 26 24 22 22 22 21 19 19 20 21 23 23 24 25 26 27 28 29 29 30 32 33 33 33 33 33 34 34 33 32 31 30 31 30 30 28 27 26 26 25 25 24 24 25 26 26 26 25
30 30 30 28 26 26 28 30 32 32 32 32 32 32 32 32 30 29 28 27 25 22 20 20 20 20 19 19 20 22 24 26 27 28 28 29 29 30 31 31 32 33 33 33 32 32 32 33 33 33 32 31 30 29 29 28 27 26 26 26 26 26 25 25 26 27 27 27 26
28 28 27 24 21 21 23 26 29 30 31 31 32 32 32 32 30 29 28 26 23 20 19 20 21 20 20 21 23 25 28 30 31 32 32 32 32 33 33 33 33 33 33 33 32 32 32 32 33 34 33 32 29 28 28 28 27 27 26 26 26 26 26 26 27 27 28 27 27
29 27 25 24 21 20 21 23 27 30 31 31 31 32 32 32 31 30 28 25 22 20 20 21 22 22 23 25 27 30 33 34 35 35 34 34 34 34 34 34 33 33 33 32 32 32 32 33 34 34 34 32 29 28 27 27 27 27 27 26 26 27 27 27 28 28 28 28 28
31 27 25 25 22 21 21 23 26 29 30 30 30 30 31 31 32 31 29 25 22 21 21 23 25 26 28 31 33 35 36 37 37 36 35 34 33 33 34 34 33 32 32 32 32 32 33 33 33 34 33 32 30 28 27 26 27 27 27 27 27 27 28 28 29 29 28 28 28
31 27 26 28 27 25 24 25 25 26 26 27 28 29 30 31 32 32 31 29 25 23 24 26 29 32 36 37 37 37 37 38 37 36 35 34 33 33 33 33 33 32 31 32 32 32 33 33 33 34 33 33 30 29 28 27 26 27 27 27 28 28 29 29 29 29 29 29 29
31 30 30 32 31 30 28 26 24 23 22 22 24 27 30 31 32 32 33 33 29 26 26 29 34 38 39 39 37 36 36 35 35 34 33 33 32 32 32 32 32 31 31 31 32 32 33 33 33 33 34 33 32 30 29 28 27 27 27 28 28 28 29 28 28 29 29 29 30
31 32 34 35 34 32 29 26 24 22 20 18 20 24 28 30 30 31 32 33 32 31 32 35 38 40 39 37 36 35 34 34 33 32 32 32 31 31 30 30 30 30 30 31 31 32 32 33 33 33 34 34 33 32 30 28 27 26 27 28 28 28 28 27 27 27 28 29 31
31 33 35 35 33 30 28 25 23 20 18 16 16 20 24 26 27 27 28 31 33 35 37 39 40 39 38 36 35 34 33 32 32 31 31 31 30 30 29 29 28 29 30 31 31 32 33 33 33 33 33 33 33 32 31 29 27 27 27 28 28 28 27 26 26 26 27 29 32
31 32 33 33 30 27 25 24 21 18 15 14 14 16 20 22 22 23 26 29 33 36 38 38 38 37 35 34 34 33 33 32 31 30 30 30 29 29 29 29 28 29 30 31 32 32 33 33 33 33 33 32 33 32 31 29 28 27 28 28 28 28 27 26 26 27 28 31 33
31 33 33 31 26 24 24 22 19 15 13 13 14 16 18 20 23 26 29 33 35 36 37 36 35 34 33 32 32 32 32 31 30 29 29 29 29 29 30 30 29 28 29 31 32 32 33 33 33 33 32 32 32 32 31 30 29 28 28 28 28 28 27 27 27 28 30 32 33
32 33 33 30 26 25 24 21 18 15 15 16 18 19 21 25 29 33 35 36 37 36 35 34 33 32 32 32 31 31 31 31 30 29 29 29 30 30 30 30 29 29 29 30 31 32 33 33 33 32 32 32 32 32 31 30 29 28 28 29 29 29 29 29 29 30 31 31 29
31 32 32 29 26 25 23 21 19 18 20 22 24 26 29 33 34 35 36 36 36 34 33 32 32 32 32 31 30 29 29 30 30 30 30 30 31 31 31 31 30 30 29 30 30 31 31 31 31 31 31 32 32 31 30 29 28 28 28 28 29 29 29 30 30 29 28 25 22
31 31 29 27 25 23 22 21 23 24 26 27 28 30 31 33 32 32 33 34 34 33 31 30 30 30 30 29 28 28 28 29 30 30 31 31 31 31 31 32 31 30 30 29 29 29 29 30 30 30 31 31 31 31 30 29 28 28 28 28 28 28 28 28 26 24 22 20 18
31 29 27 26 24 23 23 24 26 28 29 28 28 28 29 29 29 29 30 32 31 30 30 29 29 29 28 28 27 27 28 29 29 30 31 31 31 31 31 32 32 31 30 29 28 28 28 28 29 29 30 30 31 30 29 28 27 27 28 28 27 27 26 24 22 19 17 16 14
28 27 26 25 25 25 26 28 29 29 28 27 27 27 27 27 27 28 28 29 28 28 27 27 28 28 28 28 28 27 28 28 29 30 30 30 30 30 31 31 31 30 29 28 28 27 27 27 28 28 29 29 30 30 29 27 26 26 27 27 27 26 24 21 18 16 14 12 11
Wind_Direction
207 204 202 201 200 200 200 200 200 199 199 199 199 199 200 200 201 202 202 202 202 203 204 205 206 206 206 206 207 207 208 209 210 211 211 211 211 212 212 211 211 210 209 208 207 206 205 206 208 210 211 213 214 216 217 217 217 216 216 216 216 216 216 215 214 213 212 212 213
207 205 203 201 200 200 201 201 201 201 201 201 200 201 201 202 203 204 204 205 205 206 206 207 207 207 207 207 208 208 208 208 209 210 211 212 213 213 212 211 210 210 209 209 207 206 206 207 209 211 211 212 213 213 214 216 216 215 215 217 218 219 218 218 218 218 217 215 215
207 205 203 201 200 200 200 201 202 202 202 202 203 203 203 204 204 205 206 207 208 208 207 208 208 208 208 208 209 209 208 208 209 210 211 212 212 212 212 211 210 210 210 209 208 208 208 208 210 211 211 210 211 211 212 214 214 214 216 218 220 220 220 221 221 221 220 218 216
208 206 203 201 201 200 200 201 203 203 203 204 204 204 205 206 206 207 208 209 209 209 209 209 209 209 209 209 209 209 209 209 209 210 211 211 211 211 211 210 209 209 210 210 210 210 210 210 210 209 210 210 210 210 211 212 214 215 216 217 217 218 219 220 221 221 220 218 216
208 207 205 203 203 203 203 203 203 204 205 205 205 206 206 207 208 209 209 209 210 210 211 210 210 210 209 209 209 209 209 209 209 210 210 210 210 210 210 210 209 209 209 210 211 211 211 210 209 209 209 209 210 211 212 213 214 216 217 216 216 216 217 219 219 219 218 216 215
209 208 207 206 205 204 204 205 205 205 205 205 205 206 207 208 209 209 209 210 210 212 212 212 211 211 210 210 209 209 208 208 209 210 210 210 210 209 210 210 209 209 209 210 211 212 212 210 208 207 207 209 210 212 214 214 215 216 216 215 215 216 217 218 218 217 216 215 214
210 209 208 207 206 206 206 206 206 206 206 205 205 206 207 208 209 209 210 210 211 211 212 212 212 211 211 210 210 209 208 208 209 210 210 210 209 209 209 209 209 209 209 210 211 211 210 208 206 204 205 208 211 213 214 215 215 215 215 214 215 215 216 217 217 216 214 214 214
211 210 209 208 208 207 207 207 206 206 206 206 206 207 208 209 209 210 210 210 210 211 212 212 211 211 211 210 209 209 208 208 208 210 210 210 209 209 208 208 208 209 210 211 211 209 208 206 205 204 206 210 212 213 214 215 215 215 215 215 214 214 215 216 216 215 214 214 214
212 212 211 210 209 208 208 208 208 207 207 208 209 209 210 210 210 210 210 210 210 211 212 212 211 211 211 210 210 209 208 208 208 209 210 210 209 208 208 207 208 209 211 211 210 208 206 205 204 206 210 213 214 214 214 214 214 214 215 215 214 213 214 216 215 215 214 214 215
212 212 211 210 210 209 209 208 209 209 209 210 211 211 211 211 211 210 210 210 210 210 211 211 211 210 210 210 210 209 208 209 209 210 210 210 209 208 207 207 208 209 210 210 208 207 206 204 204 206 210 216 218 217 216 214 213 213 214 214 214 213 213 214 214 214 213 214 216
211 211 211 210 210 210 209 209 210 210 211 212 212 212 212 212 212 211 211 210 210 210 211 211 211 210 209 210 210 209 209 209 209 209 209 210 209 208 207 208 208 209 209 209 207 206 205 205 205 206 209 214 218 219 218 215 213 212 212 213 212 212 211 212 212 212 213 215 218
212 211 211 211 210 209 208 208 209 210 211 212 213 213 213 213 213 212 211 210 210 210 211 212 211 210 209 209 210 210 210 210 209 209 209 209 209 208 208 209 209 209 209 209 207 206 205 205 206 207 207 209 215 218 217 215 213 212 211 211 211 210 210 211 211 211 212 215 219
212 212 211 211 210 208 207 207 209 210 211 212 213 213 214 213 213 212 211 211 211 211 211 211 211 210 209 209 209 210 210 210 209 208 208 209 209 208 208 209 210 209 209 208 208 206 206 206 207 207 207 207 208 211 215 216 213 211 209 209 209 209 210 210 210 211 212 215 219
212 212 212 211 210 208 207 207 209 211 212 213 213 213 214 214 214 213 212 212 212 212 211 210 211 211 210 210 210 210 210 210 209 208 207 208 208 208 209 209 210 209 209 208 208 207 207 208 208 207 207 206 206 208 212 214 212 209 208 207 208 208 209 210 210 211 213 216 219
213 213 212 211 210 208 206 207 209 210 212 213 214 214 214 215 215 214 212 212 212 212 211 210 210 210 211 211 211 210 210 209 208 207 207 207 208 209 209 209 209 209 209 208 208 209 209 209 208 208 207 207 208 208 209 209 208 206 206 207 208 208 209 210 211 212 214 217 220
213 213 213 212 210 209 208 208 209 211 212 212 213 214 214 214 215 214 213 213 212 212 210 210 210 210 211 211 211 210 210 209 208 207 207 207 208 209 209 209 209 208 209 209 209 209 209 209 209 209 208 209 209 209 209 207 206 205 206 208 209 209 210 211 212 214 217 219 220
214 214 213 212 211 210 210 210 210 211 212 212 212 212 213 213 214 214 213 212 211 210 210 210 210 211 211 210 210 210 209 208 208 207 207 207 208 208 208 208 208 208 208 208 209 209 209 209 210 210 210 210 210 210 209 208 206 206 207 209 210 211 212 213 214 217 219 219 219
214 215 214 213 212 211 211 211 212 213 213 212 211 211 211 211 212 212 212 211 210 209 209 210 210 211 211 210 209 209 208 207 207 207 208 208 209 208 208 208 209 209 209 209 209 210 210 210 210 210 211 211 211 211 210 208 207 207 209 210 212 213 213 214 216 218 219 218 218
215 215 215 214 213 212 213 214 214 214 213 212 212 210 209 209 209 210 210 210 209 209 209 209 210 211 211 210 209 207 207 207 207 208 208 209 209 209 208 208 209 209 210 210 211 211 211 210 211 211 211 211 211 211 210 208 207 208 209 211 212 213 214 215 218 218 217 216 217
213 214 215 216 215 215 217 218 217 215 213 212 211 209 208 207 208 208 209 208 209 209 209 209 209 210 210 210 208 206 206 207 208 208 209 209 210 209 209 208 209 210 211 211 211 211 212 211 211 212 212 211 211 210 209 208 208 208 209 211 212 213 214 216 217 216 214 214 217
208 210 214 219 220 222 223 222 219 216 213 212 211 209 208 206 206 207 208 208 208 208 208 209 209 209 209 207 206 206 207 208 208 209 210 211 211 210 210 209 210 211 212 212 212 213 213 213 212 212 212 211 210 209 208 208 208 208 209 210 211 213 215 216 214 212 213 216 220
204 204 207 217 224 229 230 228 222 217 213 212 211 210 208 207 207 207 208 208 207 207 207 208 209 208 207 205 205 207 209 210 209 209 211 213 213 212 212 211 211 212 213 213 213 214 214 214 213 212 212 211 210 209 209 208 208 208 208 209 211 212 213 213 211 213 217 222 225
200 199 200 207 216 226 232 232 225 217 213 212 211 209 208 207 207 207 207 206 206 207 207 208 208 206 205 205 208 211 212 212 210 210 212 213 214 214 214 214 214 214 215 214 214 214 213 213 213 212 212 211 210 209 209 209 209 208 208 209 210 211 210 210 212 217 223 229 231
196 195 196 200 209 220 228 230 224 217 212 211 209 208 206 205 205 205 205 206 206 207 207 207 206 203 202 204 209 213 214 212 211 211 212 212 215 216 217 216 216 217 217 217 216 215 213 211 212 211 211 210 209 208 208 209 209 208 207 208 208 208 209 211 216 223 230 234 235
191 192 195 200 208 217 224 225 220 215 211 209 208 206 205 203 202 202 204 205 206 207 208 207 203 199 199 203 208 212 213 212 212 211 212 213 216 217 218 219 219 219 219 219 218 217 215 212 211 209 208 207 207 207 207 208 208 208 207 207 207 207 209 213 220 228 233 235 236
188 190 195 201 209 217 222 221 216 212 208 207 205 204 203 201 200 201 202 204 207 210 212 210 204 199 198 202 207 211 212 212 213 214 214 214 215 217 218 219 220 220 220 219 218 216 214 213 211 209 206 204 205 205 206 207 207 207 207 207 207 207 210 215 223 229 234 236 237
186 190 194 201 209 217 219 217 212 208 205 204 203 202 201 200 200 201 203 206 211 216 217 211 206 203 203 205 208 211 213 214 215 216 216 216 215 216 217 218 218 219 219 218 217 215 214 213 211 209 206 204 204 204 205 205 205 206 206 207 208 210 214 219 225 230 233 236 237
188 193 198 203 209 214 214 210 206 203 202 201 201 201 201 200 200 202 204 209 217 221 218 211 208 207 208 209 211 214 216 216 216 216 216 216 215 215 215 216 217 217 217 216 215 214 213 212 212 210 207 205 204 204 205 205 206 207 208 209 211 214 219 224 228 232 234 236 237
190 195 200 204 210 211 207 203 200 199 199 199 200 200 200 200 200 201 205 212 217 216 211 207 207 208 209 211 214 216 217 217 216 215 215 215 214 214 214 215 215 216 215 214 212 212 212 212 212 210 208 206 204 203 205 205 207 209 210 212 215 219 224 228 232 234 235 237 238
186 191 196 198 201 200 196 194 194 195 196 197 198 198 199 199 200 201 204 210 214 214 210 207 207 209 212 214 216 216 216 216 215 214 213 213 213 213 213 214 214 214 214 214 212 212 211 212 212 211 208 206 204 203 204 206 208 210 212 214 218 223 227 232 235 236 236 237 238
181 186 190 189 188 187 185 184 186 189 193 196 197 198 199 199 200 200 201 204 211 215 214 212 213 215 216 217 216 215 215 214 212 211 211 211 211 212 212 213 214 214 213 214 214 213 212 211 211 211 209 206 204 204 206 207 209 211 214 217 221 226 230 234 236 236 236 236 238
175 179 182 183 183 181 180 179 180 183 188 193 197 200 200 201 201 201 200 200 205 212 219 223 221 219 218 217 216 214 213 211 210 210 210 210 210 211 212 212 212 212 213 213 214 213 212 211 211 210 209 208 207 207 208 209 210 213 216 220 224 229 233 236 237 237 236 236 238
172 174 177 179 180 180 180 179 180 181 184 189 196 200 201 201 201 201 200 200 203 210 218 221 219 217 216 215 213 212 210 209 209 209 209 210 210 210 210 210 210 210 211 212 213 213 212 210 210 209 209 210 210 210 211 211 212 215 218 223 228 232 236 239 239 238 237 237 238
172 172 174 176 177 178 180 181 182 183 185 189 195 199 199 198 198 200 202 205 208 211 214 215 214 213 213 212 210 208 208 208 208 209 209 210 210 209 208 208 208 209 210 211 212 212 211 210 209 208 209 210 212 213 214 213 214 216 221 226 230 234 238 239 240 240 240 239 241
172 171 172 173 175 177 179 180 181 184 190 197 200 199 197 197 201 208 213 215 215 213 212 211 210 210 210 210 209 207 207 207 207 208 208 209 208 207 207 206 207 208 209 210 210 210 210 209 208 208 209 210 213 215 216 216 217 219 224 228 232 235 237 239 241 242 243 243 244
171 170 170 173 178 181 182 180 181 191 209 221 217 211 208 210 215 219 221 220 216 212 209 207 207 207 208 208 207 207 206 206 206 207 207 207 206 206 205 205 205 206 208 208 209 209 209 209 209 209 209 211 214 216 217 218 220 223 227 229 232 235 237 240 243 245 246 246 245
170 171 172 175 181 185 187 187 191 206 222 228 229 227 226 224 221 220 220 217 212 208 206 205 205 205 205 205 205 205 205 206 205 205 205 205 205 204 204 203 203 204 206 207 207 208 209 210 210 210 211 213 215 217 219 221 223 226 228 230 232 235 238 241 243 245 245 243 239
170 173 175 177 182 187 191 195 202 212 220 225 228 229 226 221 218 217 215 212 207 205 204 203 203 203 203 203 203 202 203 205 205 204 204 204 204 204 203 202 202 203 205 206 207 208 210 211 212 212 213 214 216 218 220 222 225 227 229 230 232 235 237 239 240 240 236 231 225
171 174 176 178 182 189 197 203 207 211 216 220 222 223 221 216 215 214 211 207 204 202 201 201 201 201 201 201 200 200 201 203 205 205 204 204 205 206 205 204 203 205 206 206 208 209 211 213 214 215 216 217 219 220 222 224 226 228 229 230 232 233 234 233 231 226 220 214 212
170 176 181 183 189 196 204 210 213 214 215 216 217 217 216 214 212 209 205 201 200 200 200 199 199 199 199 198 197 198 199 201 204 205 206 206 208 208 207 207 207 208 209 209 211 213 215 216 217 218 219 221 222 223 223 224 226 227 229 229 230 229 227 223 216 209 204 204 206
169 176 184 191 198 204 208 210 213 214 213 212 212 212 211 210 206 202 198 195 196 197 198 198 198 197 197 196 196 197 198 199 202 204 206 208 209 210 210 211 212 213 214 216 217 219 220 222 222 223 223 224 224 225 224 223 223 224 226 227 227 224 218 211 203 198 195 196 200
Height
788 789 790 790 792 793 793 794 795 796 797 798 798 799 800 801 802 803 803 804 804 805 805 806 807 808 809 810 810 811 812 813 813 814 816 817 818 819 820 821 822 823 823 824 825 827 828 829 829 830 831 832 833 834 836 836 837 838 839 840 841 842 842 843 843 844 844 845 845
786 787 788 788 789 790 792 793 793 794 794 795 796 797 798 799 800 801 801 802 802 803 803 804 805 806 807 808 808 809 810 811 812 813 814 815 816 817 818 819 820 821 822 823 824 825 826 827 828 829 830 831 832 833 834 835 836 836 837 838 840 841 842 842 842 843 843 843 844
784 785 785 786 787 788 789 790 791 791 792 793 794 795 796 797 798 798 799 800 800 801 802 803 803 804 805 806 806 807 808 808 809 810 812 813 813 814 815 817 818 819 820 821 822 823 824 825 826 827 828 828 830 831 832 833 834 835 836 837 838 839 840 841 841 842 842 842 843
782 783 783 783 784 785 786 787 788 788 789 791 792 793 794 795 796 796 797 798 798 799 800 800 801 802 803 803 804 805 806 807 808 808 809 810 811 812 813 814 816 817 818 819 820 821 822 823 824 825 826 827 828 829 830 831 833 833 834 834 836 837 838 839 839 840 840 841 841
779 780 780 781 781 782 783 784 785 786 787 789 790 792 792 793 793 794 795 796 797 797 797 797 798 800 801 802 803 803 804 805 806 807 808 808 809 810 811 812 813 815 816 817 818 819 820 821 822 823 824 825 826 827 828 830 831 832 832 833 833 834 836 837 838 839 839 840 840
777 778 778 778 779 780 781 782 783 784 785 787 788 789 790 790 791 792 793 793 793 793 794 795 797 798 799 800 801 802 803 804 805 805 806 807 807 808 809 810 811 813 814 815 816 817 818 819 821 821 823 824 825 826 827 828 829 830 831 831 832 833 834 835 837 838 838 839 839
774 775 776 777 778 778 779 780 782 782 783 784 785 786 786 787 788 788 789 789 790 792 793 793 795 796 797 798 799 800 801 802 803 804 804 805 806 807 808 809 810 812 813 814 815 816 817 818 819 820 821 823 824 825 826 827 828 829 829 829 830 831 833 834 835 836 837 838 838
772 773 774 775 776 776 778 779 780 781 782 782 782 783 783 784 785 785 786 788 789 790 790 792 793 794 795 796 797 798 799 800 801 802 803 804 805 806 807 809 810 812 812 813 813 814 815 816 818 818 820 822 823 824 825 826 827 828 828 828 828 830 831 832 834 835 836 836 837
770 771 772 773 773 774 775 777 778 779 779 779 779 780 780 781 782 783 784 786 786 788 788 790 790 792 793 793 794 796 797 798 800 801 802 803 803 804 806 808 810 811 811 812 812 813 814 815 816 817 818 820 821 822 823 824 825 826 827 827 828 828 830 831 832 833 834 835 836
767 768 769 771 771 772 773 775 776 777 777 777 777 778 779 780 781 781 782 783 784 786 787 788 788 790 791 792 793 794 795 797 798 799 800 801 802 803 804 806 807 808 809 810 811 812 813 814 814 815 816 818 819 820 821 823 823 824 825 826 827 827 828 829 831 832 833 834 834
763 765 766 767 768 770 772 773 774 775 775 775 776 777 778 778 779 780 781 782 783 784 785 785 786 788 788 789 791 792 793 794 796 797 798 798 799 801 802 803 804 806 807 808 809 810 812 812 813 813 814 815 817 819 820 821 822 823 823 824 825 826 827 828 829 830 831 832 833
760 762 763 764 766 767 769 771 772 773 773 774 774 775 776 777 778 779 780 781 782 782 782 783 784 785 786 787 788 789 791 792 793 794 795 797 798 799 800 802 803 803 805 806 807 809 810 810 811 811 812 813 814 816 818 819 820 821 822 822 823 824 825 827 828 829 830 831 832
758 759 761 762 763 765 767 768 769 771 771 772 773 774 775 776 777 778 779 780 780 780 781 782 783 783 784 785 786 788 788 790 791 792 793 795 796 797 799 800 801 802 803 804 805 807 807 808 808 809 810 811 812 813 815 817 818 818 819 821 822 823 824 825 826 827 828 829 830
755 757 758 760 762 763 764 765 767 768 769 769 770 772 773 774 776 777 778 778 778 779 780 781 781 782 782 783 784 786 787 788 789 791 792 793 794 796 797 798 799 800 801 802 803 804 805 806 807 807 808 809 810 811 812 814 815 816 817 818 820 821 823 823 825 826 827 828 828
753 755 757 758 759 761 762 763 764 765 766 767 768 770 771 773 774 775 776 777 777 778 779 780 780 781 781 782 783 784 785 787 788 789 790 792 793 794 795 797 798 798 799 800 801 802 803 804 805 806 806 807 808 809 810 812 813 814 816 817 818 820 821 822 823 825 826 827 827
752 753 755 756 758 759 759 760 762 763 764 765 766 768 769 771 772 773 774 775 776 777 778 778 779 780 780 782 782 783 784 785 786 788 788 789 791 792 793 794 796 797 798 799 799 800 801 802 803 804 805 806 807 808 809 810 812 813 815 816 818 818 820 821 822 823 824 825 826
750 752 753 754 756 756 757 758 759 761 762 762 763 765 767 768 770 771 772 773 774 776 777 777 778 779 780 780 781 782 783 784 785 785 786 787 788 789 791 793 794 795 796 797 798 799 800 801 802 803 804 805 806 807 808 809 811 813 814 815 816 817 818 819 820 822 823 823 824
749 750 752 753 753 754 755 757 758 758 759 760 761 763 764 766 767 768 769 770 772 773 774 775 777 778 778 778 779 780 781 781 782 783 784 785 786 788 789 791 793 794 795 796 797 798 799 800 801 802 803 804 805 806 807 808 810 811 813 814 815 815 817 818 819 820 821 823 823
746 748 750 751 752 753 754 755 755 755 756 757 759 760 762 763 764 766 767 768 769 771 772 773 774 775 776 776 777 777 778 779 779 781 782 784 786 788 789 791 793 794 795 795 796 797 798 799 800 801 802 803 804 805 807 808 809 810 811 812 813 814 815 817 818 819 820 822 823
742 745 747 749 751 753 754 753 752 753 754 756 757 758 759 761 762 764 765 766 767 768 769 770 771 773 773 774 775 776 776 777 778 780 782 784 786 788 790 791 793 794 795 796 796 797 797 798 799 800 801 802 803 805 806 808 809 809 810 811 812 813 815 816 817 818 819 820 821
736 740 744 748 752 754 754 752 751 752 753 755 756 757 758 759 760 762 763 763 765 766 768 768 769 770 772 773 774 775 776 778 780 781 783 785 787 789 790 791 793 794 795 796 797 797 797 797 798 798 799 801 802 804 805 807 808 808 808 809 811 813 814 815 816 817 818 818 819
732 735 739 745 751 753 753 752 751 752 753 754 755 756 757 758 759 760 761 763 764 765 766 767 768 769 770 772 774 776 778 780 782 783 785 787 788 789 790 791 792 793 794 795 796 797 797 797 797 798 799 800 802 803 804 805 806 807 807 808 810 812 813 814 815 815 816 817 818
728 731 735 741 748 751 751 751 751 752 752 753 754 755 756 757 758 759 761 762 763 764 765 766 767 768 770 773 776 779 781 782 783 784 786 788 789 790 790 791 792 792 793 793 794 794 795 795 796 797 798 800 801 802 803 804 805 805 806 808 809 811 812 813 813 814 815 816 817
725 728 732 737 742 744 746 748 749 750 751 752 753 754 755 756 758 759 761 762 762 762 763 765 767 769 771 773 777 780 782 783 784 785 787 788 789 789 790 791 791 791 791 792 792 792 793 794 795 797 798 799 800 801 803 804 804 805 806 807 808 810 811 811 812 813 814 814 815
723 727 731 734 737 740 743 746 747 748 749 750 752 753 754 756 757 759 760 761 761 762 764 766 768 770 772 774 777 779 782 783 785 786 787 787 788 788 789 789 790 790 790 790 790 790 791 792 793 794 796 797 798 800 801 803 803 804 805 806 807 808 809 810 811 812 813 813 814
723 727 731 733 737 739 742 743 744 746 747 749 750 752 753 754 756 758 759 759 760 763 766 769 771 772 773 775 777 779 781 783 784 785 785 785 786 786 787 787 787 788 788 788 788 788 789 789 790 792 794 796 797 798 800 801 802 803 804 805 806 807 808 809 810 810 811 812 813
722 727 731 734 737 738 740 741 742 744 745 747 748 749 751 752 754 755 757 758 760 764 768 771 773 774 774 775 776 778 779 780 781 782 783 782 782 783 783 783 784 785 785 785 786 787 787 788 789 791 793 794 795 797 798 799 801 802 803 803 804 805 806 807 808 808 809 810 811
721 725 729 733 735 736 738 738 740 742 743 744 746 747 748 750 751 753 755 757 761 764 768 771 773 773 774 775 775 776 777 777 777 778 778 778 778 778 779 780 781 782 782 783 784 785 786 788 789 790 791 793 794 795 797 798 799 800 801 802 803 804 805 806 806 807 808 808 809
718 723 728 730 733 734 735 736 737 738 740 741 743 744 746 747 748 750 753 756 760 764 766 768 771 772 773 773 773 772 772 772 772 773 773 774 774 775 776 777 778 779 779 780 781 783 784 786 787 789 790 792 793 794 795 796 797 798 799 800 801 802 803 804 804 805 806 807 807
716 721 725 728 730 732 733 733 734 736 737 739 740 742 743 744 746 748 750 754 759 762 764 766 768 768 768 767 766 766 766 766 767 768 769 770 771 773 774 775 776 777 777 778 779 780 782 784 786 788 789 791 792 793 793 795 796 797 798 798 799 800 801 802 803 803 804 805 806
713 718 722 724 726 728 729 731 733 734 736 737 738 739 741 742 743 744 747 750 755 759 762 763 764 763 761 760 760 760 761 762 763 764 765 767 768 770 771 773 774 775 775 776 777 779 780 782 784 786 788 789 790 791 792 793 794 795 796 797 798 798 799 800 801 802 802 803 804
710 714 718 720 722 724 726 728 731 733 734 736 737 738 739 740 741 742 743 746 750 754 758 760 759 757 756 756 757 758 759 760 762 762 763 764 766 768 769 771 772 773 773 774 776 777 779 781 783 784 786 788 789 790 790 791 792 793 794 795 796 797 798 798 799 799 800 801 802
708 710 713 716 719 721 724 726 728 731 733 734 736 737 738 739 740 741 743 744 746 749 751 752 752 752 753 754 755 757 758 759 760 761 762 763 764 766 768 769 770 771 772 773 774 776 778 779 781 783 784 786 787 788 789 790 791 791 792 793 794 795 796 796 797 798 798 799 800
707 708 711 714 717 720 722 724 727 729 731 733 734 736 738 739 740 742 743 743 744 744 745 746 747 748 750 752 753 754 755 757 758 759 760 762 763 765 766 768 769 770 770 772 773 775 777 778 780 781 783 784 786 787 788 788 789 790 790 791 792 793 794 795 796 796 797 798 798
706 708 710 713 716 719 722 723 725 728 730 732 733 736 738 739 740 742 743 743 743 742 742 743 744 747 748 750 751 752 753 754 756 757 759 760 762 763 764 766 767 768 769 770 772 773 775 777 778 780 781 783 784 785 786 787 787 788 788 789 790 791 792 793 794 795 796 797 797
705 706 708 711 715 718 721 723 724 726 729 731 733 735 737 738 739 740 741 742 741 741 741 741 743 745 747 748 749 750 751 753 754 756 758 759 760 762 763 764 766 767 768 769 771 772 773 775 777 778 780 782 783 783 784 785 785 786 787 788 789 790 791 792 793 794 794 795 796
703 705 706 709 713 717 720 721 723 725 728 731 732 733 734 736 736 736 737 738 739 739 739 740 742 743 744 745 747 748 749 751 753 755 756 758 759 760 762 763 764 766 767 768 769 771 772 774 775 777 778 780 781 782 782 783 784 785 786 787 788 788 790 791 792 793 793 794 795
703 704 706 709 713 716 718 720 722 724 727 728 730 730 731 731 731 732 734 736 737 738 739 740 741 741 743 744 745 747 749 750 752 753 755 756 758 759 760 762 763 764 766 767 768 770 771 773 774 775 777 778 779 780 781 782 783 783 784 785 787 788 789 790 791 792 793 793 794
702 703 706 709 712 715 718 720 721 722 723 724 726 727 728 728 730 732 734 735 736 738 738 739 740 741 743 744 746 747 748 750 751 752 753 755 757 758 759 761 762 763 764 766 767 768 770 771 773 774 775 776 777 778 779 780 781 782 783 784 786 787 788 789 790 791 791 791 791
702 703 706 709 711 713 716 718 718 718 719 721 723 725 727 728 730 732 734 735 736 737 738 739 740 742 743 744 746 747 748 749 750 752 753 754 756 757 758 760 761 762 763 765 766 768 769 770 771 773 773 774 775 776 778 778 780 781 782 783 784 786 787 788 789 789 789 788 788
702 703 705 707 709 711 712 713 715 716 718 720 722 723 725 727 729 731 733 734 735 737 738 739 740 742 743 744 745 746 747 748 750 751 752 754 755 757 758 759 760 762 763 764 765 766 768 769 770 771 772 773 774 775 776 777 778 779 780 781 783 784 785 786 787 787 786 786 787